Greensboro, NC

6:47 PM EST on February 12, 2016 (GMT -0500)
Piedmont Triad International

Weather History for KGSO - September, 2012

Change the Weather History Date:

Tuesday, September 18, 2012

  Actual Average Record
Temperature  
Mean Temperature 71 °F 69 °F  
Max Temperature 76 °F 79 °F 97 °F (1921)
Min Temperature 66 °F 60 °F 45 °F (1984)
Degree Days  
Heating Degree Days 0 1  
Month to date heating degree days 2 6  
Since 1 July heating degree days 2 7  
Cooling Degree Days 6 5  
Month to date cooling degree days 148 138  
Year to date cooling degree days 1567 1400  
Growing Degree Days 20 (Base 50)    
Moisture  
Dew Point 68 °F    
Average Humidity 91    
Maximum Humidity 100    
Minimum Humidity 82    
Precipitation  
Precipitation 0.97 in 0.14 in 2.28 in (2003)
Month to date precipitation 3.17 2.70  
Year to date precipitation 29.91 31.49  
Sea Level Pressure  
Sea Level Pressure 29.77 in    
Wind  
Wind Speed 11 mph (SW)    
Max Wind Speed 26 mph    
Max Gust Speed 39 mph    
Visibility 7 miles    
Events Rain , Thunderstorm    
T = Trace of Precipitation, MM = Missing Value Source: NWS Daily Summary

Daily Weather History Graph

Daily Weather History Graph

Search for Another Location

Airport or City:

Trip Planner

Search our weather history database for the weather conditions in past years. The results will help you decide how hot, cold, wet, or windy it might be!

Date:

Astronomy

Sep. 18, 2012 Rise Set
Actual Time 7:04 AM EDT 7:21 PM EDT
Civil Twilight 6:39 AM EDT 7:47 PM EDT
Nautical Twilight 6:09 AM EDT 8:17 PM EDT
Astronomical Twilight 5:38 AM EDT 8:47 PM EDT
Moon 9:55 AM EDT (9/18) 8:52 PM EDT (9/18)
Length of Visible Light 13h 08m
Length of Day
12h 16m
Waxing Crescent, 9% of the Moon is Illuminated
Sep 18
Waxing Crescent
Sep 22
First Quarter
Sep 29
Full
Oct 8
Last Quarter
Oct 15
New

Hourly Weather History & Observations

Time (EDT) Temp. Dew Point Humidity Pressure Visibility Wind Dir Wind Speed Gust Speed Precip Events Conditions
12:01 AM 71.6 °F 69.8 °F 94% 29.92 in 10.0 mi South 12.7 mph - N/A   Overcast
12:33 AM 71.6 °F 68.0 °F 88% 29.91 in 10.0 mi South 13.8 mph - N/A   Overcast
12:44 AM 71.6 °F 68.0 °F 88% 29.90 in 10.0 mi South 12.7 mph - N/A   Overcast
12:54 AM 70.0 °F 68.0 °F 93% 29.87 in 10.0 mi South 13.8 mph - N/A   Mostly Cloudy
1:13 AM 71.6 °F 68.0 °F 88% 29.89 in 10.0 mi South 12.7 mph - N/A   Mostly Cloudy
1:54 AM 71.1 °F 68.0 °F 90% 29.85 in 10.0 mi South 15.0 mph - N/A   Overcast
2:54 AM 71.1 °F 68.0 °F 90% 29.83 in 10.0 mi South 16.1 mph 21.9 mph N/A   Overcast
3:40 AM 71.6 °F 68.0 °F 88% 29.83 in 10.0 mi South 16.1 mph 26.5 mph N/A   Overcast
3:54 AM 72.0 °F 68.0 °F 87% 29.79 in 10.0 mi South 13.8 mph - N/A   Overcast
4:13 AM 71.6 °F 68.0 °F 88% 29.81 in 10.0 mi South 17.3 mph 24.2 mph N/A   Overcast
4:54 AM 73.0 °F 68.0 °F 84% 29.77 in 10.0 mi South 18.4 mph 35.7 mph N/A   Overcast
5:54 AM 73.0 °F 68.0 °F 84% 29.74 in 7.0 mi South 17.3 mph 27.6 mph 0.00 in Rain Rain
6:54 AM 72.0 °F 68.0 °F 87% 29.73 in 10.0 mi South 23.0 mph 28.8 mph 0.00 in   Overcast
7:54 AM 72.0 °F 69.1 °F 91% 29.73 in 4.0 mi South 17.3 mph 26.5 mph 0.04 in Rain Rain
8:34 AM 71.6 °F 69.8 °F 94% 29.75 in 0.8 mi South 16.1 mph 23.0 mph 0.14 in Rain Heavy Rain
8:40 AM 71.6 °F 69.8 °F 94% 29.75 in 1.5 mi South 21.9 mph 32.2 mph 0.16 in Rain Heavy Rain
8:54 AM 72.0 °F 69.1 °F 91% 29.73 in 1.5 mi SSW 25.3 mph 34.5 mph 0.25 in Rain Light Rain
9:01 AM 71.6 °F 69.8 °F 94% 29.77 in 2.0 mi SSW 21.9 mph 33.4 mph 0.02 in Rain Rain
9:12 AM 71.6 °F 69.8 °F 94% 29.76 in 4.0 mi SSW 16.1 mph 24.2 mph 0.02 in   Overcast
9:54 AM 73.0 °F 70.0 °F 90% 29.73 in 10.0 mi SSW 16.1 mph 21.9 mph 0.02 in   Overcast
10:54 AM 73.9 °F 70.0 °F 87% 29.73 in 10.0 mi SSW 13.8 mph - N/A   Overcast
11:54 AM 75.9 °F 70.0 °F 82% 29.72 in 10.0 mi SSW 17.3 mph 29.9 mph 0.01 in   Overcast
12:19 PM 75.2 °F 69.8 °F 83% 29.76 in 1.0 mi SSW 19.6 mph 28.8 mph 0.00 in Rain Rain
12:30 PM 73.4 °F 69.8 °F 88% 29.75 in 3.0 mi SSW 10.4 mph 23.0 mph 0.06 in Rain , Thunderstorm Light Thunderstorms and Rain
12:38 PM 73.4 °F 69.8 °F 88% 29.76 in 1.8 mi SW 15.0 mph 26.5 mph 0.09 in Rain , Thunderstorm Heavy Thunderstorms and Rain
12:47 PM 71.6 °F 69.8 °F 94% 29.76 in 3.0 mi SW 13.8 mph 25.3 mph 0.14 in Rain Rain
12:54 PM 73.0 °F 71.1 °F 93% 29.73 in 3.0 mi SW 12.7 mph - 0.15 in Rain Light Rain
1:14 PM 73.4 °F 71.6 °F 94% 29.76 in 10.0 mi SW 9.2 mph 18.4 mph 0.00 in   Overcast
1:32 PM 73.4 °F 71.6 °F 94% 29.75 in 10.0 mi SW 11.5 mph - 0.00 in   Overcast
1:49 PM 69.8 °F 66.2 °F 88% 29.76 in 0.8 mi West 21.9 mph 29.9 mph 0.09 in Rain Heavy Rain
1:56 PM 68.0 °F 64.4 °F 88% 29.76 in 1.5 mi West 11.5 mph 29.9 mph 0.01 in Rain Rain
2:00 PM 66.2 °F 64.4 °F 94% 29.75 in 0.8 mi West 5.8 mph - 0.03 in Rain Heavy Rain
2:16 PM 66.2 °F 64.4 °F 94% 29.77 in 1.2 mi West 9.2 mph - 0.21 in Rain Heavy Rain
2:28 PM 66.2 °F 64.4 °F 94% 29.74 in 2.5 mi WSW 5.8 mph - 0.27 in Rain Light Rain
2:42 PM 66.2 °F 64.4 °F 94% 29.74 in 5.0 mi West 5.8 mph - 0.28 in Rain Light Rain
2:54 PM 68.0 °F 64.9 °F 90% 29.70 in 10.0 mi SW 5.8 mph - 0.28 in Rain Light Rain
3:29 PM 69.8 °F 66.2 °F 88% 29.73 in 10.0 mi SW 6.9 mph - N/A   Mostly Cloudy
3:54 PM 69.1 °F 66.0 °F 90% 29.70 in 10.0 mi SSW 6.9 mph - N/A   Mostly Cloudy
4:54 PM 70.0 °F 66.0 °F 87% 29.73 in 10.0 mi WSW 8.1 mph - N/A   Mostly Cloudy
5:54 PM 71.1 °F 66.0 °F 84% 29.73 in 10.0 mi WSW 4.6 mph - N/A   Mostly Cloudy
6:54 PM 71.1 °F 66.0 °F 84% 29.73 in 10.0 mi Calm Calm - N/A   Scattered Clouds
7:54 PM 69.1 °F 66.0 °F 90% 29.76 in 10.0 mi NW 5.8 mph - N/A   Mostly Cloudy
8:25 PM 69.8 °F 66.2 °F 88% 29.79 in 10.0 mi NNW 3.5 mph - N/A   Mostly Cloudy
8:54 PM 69.1 °F 66.0 °F 90% 29.77 in 10.0 mi Calm Calm - 0.00 in Rain Light Rain
9:54 PM 68.0 °F 66.0 °F 93% 29.78 in 10.0 mi Calm Calm - 0.09 in   Overcast
10:54 PM 68.0 °F 66.0 °F 93% 29.80 in 10.0 mi NW 4.6 mph - N/A   Mostly Cloudy
11:54 PM 66.9 °F 66.0 °F 97% 29.82 in 10.0 mi NNW 4.6 mph - N/A   Scattered Clouds